Weather Roundup
Issued by NWS Chicago, IL

Home | Current Version | Previous Version | Text Only | Print | Product List | Glossary Off
Versions: 1 2 3 4 5 6 7 8 9 10 11 12 13 14 15 16 17 18 19 20 21 22 23 24 25 26 27 28 29 30 31 32 33 34 35 36 37 38 39 40 41 42 43 44 45 46 47 48 49 50

000
NZUS59 KLOT 032008
HRRLOT

CHICAGO AREA WEATHER ROUNDUP
NATIONAL WEATHER SERVICE CHICAGO/ROMEOVILLE IL
300 PM CDT MON AUG 03 2015

NOTE: "FAIR" INDICATES FEW OR NO CLOUDS BELOW 12,000 FEET WITH NO
SIGNIFICANT WEATHER AND/OR OBSTRUCTIONS TO VISIBILITY.

* THESE STATIONS ARE NOT UNDER NWS QUALITY CONTROL. THEY ALSO MAY NOT
  REPORT WEATHER SUCH AS PRECIPITATION OR FOG.

ILZ005-006-012>014-019>023-032100-
NORTHEAST ILLINOIS

CITY           SKY/WX    TMP DP  RH WIND       PRES   REMARKS
OHARE          MOSUNNY   81  47  30 W13G24    29.85F HX  80
MIDWAY         MOSUNNY   83  47  28 W9        29.85S HX  81
AURORA         SUNNY     80  50  34 W14       29.88F HX  80
LANSING*       SUNNY     82  49  32 W8        29.86S HX  81
JOLIET*        SUNNY     81  52  36 W3        29.87S HX  80
WAUKEGAN       SUNNY     78  48  34 W12G23    29.84F
DUPAGE AIRPORT SUNNY     80  47  31 NW10      29.87S
WHEELING       SUNNY     81  45  28 NW13      29.86F HX  80
KANKAKEE*      SUNNY     83  59  43 NW10G18   29.87S HX  83
MORRIS*        SUNNY     80  52  37 NW13      29.88R HX  80
LEWIS AIRPORT* SUNNY     80  50  35 W9        29.87S
NORTHERLY IS     N/A     81  44  27 NW6         N/A  HX  80
$$

WIZ051-052-058>065-066-070>072-032100-
SOUTHEAST WISCONSIN

CITY           SKY/WX    TMP DP  RH WIND       PRES   REMARKS
MILWAUKEE      MOSUNNY   80  45  28 NW21G30   29.83F
KENOSHA*       SUNNY     78  49  35 NW14G26   29.85S
RACINE*        SUNNY     80  47  31 W10       29.85F
BURLINGTON     SUNNY     79  43  28 NW15G22   29.85F
WAUKESHA       MOSUNNY   79  46  31 NW18G29   29.85F
WEST BEND      SUNNY     77  45  31 W15G22    29.83S
$$

INZ001>003-010>013-019-020-032100-
NORTHWEST INDIANA

CITY           SKY/WX    TMP DP  RH WIND       PRES   REMARKS
GARY*          MOSUNNY   79  57  47 NE12      29.86F HX  80
MICHIGAN CITY* NOT AVBL
RENSSELAER*    NOT AVBL
VALPARAISO     SUNNY     81  60  48 NW8       29.86F HX  82
$$

LMZ740>746-032100-
SOUTHERN LAKE MICHIGAN

STATION/POSITION TIME  SKY/WX   TEMP WIND        PRES    VSBY
                                AIR  DIR/SP/G
                 (UTC)          (F)  (DEG/KT/KT) (MB)    (MI)
HARRISON CRIB    1900            77  320/ 14/ 16   N/A
BURNHAM HARBOR   2000            81  300/  7/ 16   N/A
CALUMET HARBOR   1900            73   60/  7/ 10   N/A
BURNS HARBOR     1900            74   70/  6/  8 1011.9S
MICHIGAN CITY    1900            74  350/  5/  6   N/A
$$

ABBREVIATIONS USED IN REMARKS
   TC - TEMPERATURE IN CELSIUS
  WCI - WIND CHILL INDEX
   HX - HEAT INDEX
  VSB - VISIBILITY
$$



USA.gov is the U.S. government's official web portal to all federal, state and local government web resources and services.